Location: *
(55.5817°S, 142.4781°W)
Time: 09:36:36
(UTC+00:00)

In-Cosmos 22 Rocket - Pass Details

Date: 29 April 2025
Orbit: 789 x 886 km, 81.2° (Epoch: 18 May)

Event Time Altitude Azimuth Distance (km) Brightness Sun altitude
Rises 15:57:17 0° 197° (SSW) 3,522 7.1 -7.9°
Reaches altitude 10° 15:59:49 10° 200° (SSW) 2,568 6.4 -7.6°
Maximum altitude 16:05:31 56° 276° (W) 1,037 4.4 -6.8°
Drops below altitude 10° 16:11:02 10° 353° (N) 2,483 6.8 -6.0°
Sets 16:13:26 0° 356° (N) 3,395 7.5 -5.7°
